Weather History for Erie, PA

Change the Weather History Date:

Tuesday, February 25, 2014

  Actual Average Record
Temperature  
Mean Temperature 18 °F 30 °F  
Max Temperature 21 °F 37 °F 67 °F (1957)
Min Temperature 14 °F 22 °F -4 °F (1900)
Degree Days  
Heating Degree Days 47 35  
Month to date heating degree days 1076 924  
Since 1 July heating degree days 4657 4262  
Cooling Degree Days 0 0  
Month to date cooling degree days 0 0  
Year to date cooling degree days 0 0  
Moisture  
Dew Point 12 °F    
Average Humidity 71    
Maximum Humidity 88    
Minimum Humidity 54    
Precipitation  
Precipitation 0.14 in 0.10 in 1.78 in (1961)
Month to date precipitation 3.32 2.11  
Year to date precipitation 5.88 5.06  
Snow  
Snow 2.50 in 0.60 in - ()
Month to date snowfall 26.5 16.4  
Since 1 July snowfall 118.2 82.2  
Snow Depth 1.00 in    
Sea Level Pressure  
Sea Level Pressure 30.06 in    
Wind  
Wind Speed 9 mph (West)    
Max Wind Speed 17 mph    
Max Gust Speed 28 mph    
Visibility 4 miles    
Events Fog , Snow    
T = Trace of Precipitation, MM = Missing Value Source: NWS Daily Summary

Daily Weather History Graph

Daily Weather History Graph

Search for Another Location

Airport:

Trip Planner

Search our weather history database for the weather conditions in past years. The results will help you decide how hot, cold, wet, or windy it might be!

Date:

Astronomy

Feb. 25, 2014 Rise Set
Actual Time 7:02 AM EST 6:06 PM EST
Civil Twilight 6:33 AM EST 6:34 PM EST
Nautical Twilight 6:01 AM EST 7:06 PM EST
Astronomical Twilight 5:29 AM EST 7:39 PM EST
Moon 3:58 AM EST (2/25) 2:07 PM EST (2/25)
Length of Visible Light 12h 00m
Length of Day
11h 03m
Waning Crescent, 18% of the Moon is Illuminated
Feb 25
Waning Crescent
Mar 1
New
Mar 8
First Quarter
Mar 16
Full
Mar 23
Last Quarter

Hourly Weather History & Observations

Time (EST) Temp. Windchill Dew Point Humidity Pressure Visibility Wind Dir Wind Speed Gust Speed Precip Events Conditions
12:17 AM 21.2 °F 10.9 °F 14.0 °F 74% 30.10 in 10.0 mi West 9.2 mph - N/A   Overcast
12:38 AM 19.4 °F 7.9 °F 12.2 °F 74% 30.09 in 8.0 mi West 10.4 mph - 0.00 in Snow Light Snow
12:51 AM 19.9 °F 9.3 °F 12.0 °F 71% 30.13 in 9.0 mi West 9.2 mph - 0.00 in   Overcast
12:56 AM 19.4 °F 7.2 °F 12.2 °F 74% 30.09 in 4.0 mi WNW 11.5 mph - 0.00 in Snow Light Snow
1:02 AM 19.4 °F 9.5 °F 15.8 °F 86% 30.09 in 1.8 mi NW 8.1 mph 17.3 mph 0.00 in Snow Light Snow
1:09 AM 19.4 °F 6.6 °F 15.8 °F 86% 30.09 in 2.0 mi NW 12.7 mph 17.3 mph 0.00 in Snow Light Snow
1:19 AM 19.4 °F 8.6 °F 14.0 °F 80% 30.10 in 1.5 mi WNW 9.2 mph 21.9 mph 0.00 in Snow Light Snow
1:25 AM 19.4 °F 7.9 °F 14.0 °F 80% 30.10 in 2.0 mi WNW 10.4 mph 21.9 mph 0.00 in Snow Light Snow
1:34 AM 19.4 °F 9.5 °F 14.0 °F 80% 30.10 in 3.0 mi WNW 8.1 mph - 0.00 in Snow Light Snow
1:41 AM 19.4 °F 10.4 °F 15.8 °F 86% 30.10 in 2.5 mi NW 6.9 mph - 0.00 in Snow Light Snow
1:51 AM 18.0 °F 6.1 °F 15.1 °F 88% 30.14 in 2.5 mi NW 10.4 mph 16.1 mph 0.00 in Snow Light Snow
1:59 AM 17.6 °F 7.3 °F 12.2 °F 79% 30.10 in 3.0 mi WNW 8.1 mph - 0.00 in Snow Light Snow
2:09 AM 17.6 °F 6.4 °F 12.2 °F 79% 30.10 in 2.5 mi WNW 9.2 mph - 0.00 in Snow Light Snow
2:17 AM 17.6 °F 5.0 °F 12.2 °F 79% 30.10 in 2.5 mi WNW 11.5 mph - 0.00 in Snow Light Snow
2:38 AM 17.6 °F 5.0 °F 10.4 °F 73% 30.09 in 5.0 mi WNW 11.5 mph 16.1 mph 0.00 in Snow Light Snow
2:51 AM 18.0 °F 6.9 °F 8.1 °F 65% 30.13 in 10.0 mi WNW 9.2 mph 18.4 mph 0.00 in   Overcast
3:51 AM 17.1 °F 4.3 °F 5.0 °F 59% 30.12 in 10.0 mi West 11.5 mph 17.3 mph N/A   Overcast
4:51 AM 17.1 °F 7.6 °F 3.9 °F 56% 30.13 in 7.0 mi West 6.9 mph 16.1 mph N/A   Overcast
5:25 AM 15.8 °F 4.2 °F 5.0 °F 62% 30.09 in 4.0 mi West 9.2 mph - 0.00 in Snow Light Snow
5:42 AM 15.8 °F 4.2 °F 8.6 °F 73% 30.09 in 1.8 mi West 9.2 mph - 0.00 in Snow Light Snow
5:51 AM 15.1 °F 5.2 °F 10.0 °F 80% 30.13 in 1.2 mi WNW 6.9 mph - 0.00 in Snow Light Snow
6:09 AM 15.8 °F 7.2 °F 10.4 °F 79% 30.09 in 1.0 mi West 5.8 mph - 0.00 in Snow Light Snow
6:17 AM 15.8 °F 6.1 °F 10.4 °F 79% 30.09 in 1.0 mi West 6.9 mph - 0.01 in Snow Light Snow
6:42 AM 14.0 °F 2.9 °F 10.4 °F 86% 30.09 in 1.5 mi WNW 8.1 mph - 0.01 in Snow Light Snow
6:47 AM 14.0 °F 2.9 °F 10.4 °F 86% 30.09 in 1.0 mi WNW 8.1 mph - 0.01 in Snow Light Snow
6:51 AM 14.0 °F 3.9 °F 10.0 °F 84% 30.13 in 1.2 mi West 6.9 mph - 0.01 in Snow Light Snow
6:56 AM 14.0 °F 2.9 °F 10.4 °F 86% 30.09 in 2.0 mi West 8.1 mph - 0.00 in Snow Light Snow
7:05 AM 14.0 °F 3.9 °F 8.6 °F 79% 30.09 in 3.0 mi West 6.9 mph - 0.00 in Snow Light Snow
7:26 AM 14.0 °F 2.9 °F 8.6 °F 79% 30.10 in 1.8 mi West 8.1 mph - 0.00 in Snow Light Snow
7:37 AM 14.0 °F 5.1 °F 8.6 °F 79% 30.10 in 2.0 mi West 5.8 mph - 0.00 in Snow Light Snow
7:51 AM 14.0 °F 3.9 °F 9.0 °F 80% 30.14 in 2.0 mi West 6.9 mph - 0.00 in Snow Light Snow
8:51 AM 15.1 °F 2.5 °F 5.0 °F 64% 30.16 in 2.5 mi West 10.4 mph 16.1 mph 0.00 in   Haze
8:58 AM 15.8 °F 3.4 °F 5.0 °F 62% 30.12 in 10.0 mi West 10.4 mph - N/A   Scattered Clouds
9:51 AM 16.0 °F 3.6 °F 5.0 °F 62% 30.16 in 8.0 mi West 10.4 mph - 0.01 in   Mostly Cloudy
10:51 AM 17.1 °F 5.8 °F 6.1 °F 62% 30.16 in 10.0 mi West 9.2 mph - N/A   Mostly Cloudy
11:51 AM 17.1 °F 4.3 °F 3.9 °F 56% 30.16 in 10.0 mi WSW 11.5 mph - N/A   Mostly Cloudy
12:35 PM 19.4 °F 7.9 °F 5.0 °F 54% 30.10 in 10.0 mi West 10.4 mph 17.3 mph N/A   Scattered Clouds
12:51 PM 18.0 °F 6.9 °F 5.0 °F 57% 30.13 in 10.0 mi West 9.2 mph 16.1 mph N/A   Scattered Clouds
1:51 PM 19.0 °F 7.5 °F 6.1 °F 57% 30.11 in 10.0 mi West 10.4 mph - N/A   Clear
2:51 PM 19.0 °F 6.8 °F 7.0 °F 59% 30.10 in 10.0 mi West 11.5 mph 19.6 mph N/A   Clear
3:51 PM 19.9 °F 9.3 °F 8.1 °F 60% 30.08 in 10.0 mi West 9.2 mph 18.4 mph N/A   Clear
4:51 PM 19.9 °F 10.1 °F 10.0 °F 65% 30.05 in 10.0 mi WSW 8.1 mph - 0.00 in   Overcast
5:51 PM 19.9 °F 8.6 °F 10.0 °F 65% 30.07 in 10.0 mi West 10.4 mph 17.3 mph N/A   Overcast
6:11 PM 19.4 °F 7.2 °F 10.4 °F 68% 30.02 in 5.0 mi West 11.5 mph 17.3 mph 0.00 in Snow Light Snow
6:51 PM 19.9 °F 10.1 °F 12.9 °F 74% 30.05 in 4.0 mi WSW 8.1 mph - 0.00 in Snow Light Snow
7:12 PM 19.4 °F 8.6 °F 14.0 °F 80% 30.01 in 4.0 mi SW 9.2 mph - 0.00 in Snow Light Snow
7:32 PM 19.4 °F 9.5 °F 15.8 °F 86% 30.00 in 2.5 mi SW 8.1 mph - 0.00 in Snow Light Snow
7:43 PM 19.4 °F 9.5 °F 15.8 °F 86% 30.00 in 3.0 mi SW 8.1 mph - 0.00 in Snow Light Snow
7:51 PM 19.9 °F 10.1 °F 15.1 °F 81% 30.04 in 3.0 mi SW 8.1 mph - 0.00 in Snow Light Snow
7:58 PM 19.4 °F 7.9 °F 15.8 °F 86% 29.99 in 2.0 mi SSW 10.4 mph - 0.00 in Snow Light Snow
8:09 PM 19.4 °F 8.6 °F 15.8 °F 86% 29.99 in 5.0 mi SW 9.2 mph - 0.00 in Snow Light Snow
8:16 PM 19.4 °F 8.6 °F 15.8 °F 86% 29.99 in 2.5 mi SW 9.2 mph - 0.00 in Snow Light Snow
8:23 PM 19.4 °F 9.5 °F 15.8 °F 86% 29.98 in 1.0 mi SW 8.1 mph - 0.00 in Snow Light Snow
8:30 PM 19.4 °F 12.8 °F 15.8 °F 86% 29.98 in 3.0 mi WSW 4.6 mph - 0.00 in Snow Light Snow
8:51 PM 19.9 °F 9.3 °F 15.1 °F 81% 30.01 in 9.0 mi SSW 9.2 mph - 0.00 in   Overcast
9:24 PM 19.4 °F 8.6 °F 15.8 °F 86% 29.96 in 2.0 mi SSW 9.2 mph - 0.00 in Snow Light Snow
9:34 PM 19.4 °F 9.5 °F 15.8 °F 86% 29.96 in 1.8 mi SW 8.1 mph - 0.00 in Snow Light Snow
9:47 PM 19.4 °F 9.5 °F 15.8 °F 86% 29.96 in 0.8 mi SW 8.1 mph - 0.00 in Snow Light Snow
9:51 PM 19.9 °F 9.3 °F 16.0 °F 85% 29.99 in 0.5 mi SW 9.2 mph - 0.01 in Fog , Snow Snow
10:00 PM 19.4 °F 7.9 °F 15.8 °F 86% 29.95 in 1.0 mi SW 10.4 mph - 0.00 in Snow Light Snow
10:05 PM 19.4 °F 8.6 °F 15.8 °F 86% 29.94 in 3.0 mi SW 9.2 mph - 0.00 in Snow Light Snow
10:14 PM 19.4 °F 9.5 °F 15.8 °F 86% 29.94 in 4.0 mi SW 8.1 mph - 0.01 in Snow Light Snow
10:22 PM 19.4 °F 9.5 °F 15.8 °F 86% 29.94 in 1.8 mi SW 8.1 mph - 0.01 in Snow Light Snow
10:41 PM 19.4 °F 9.5 °F 15.8 °F 86% 29.94 in 0.8 mi SW 8.1 mph - 0.01 in Snow Light Snow
10:48 PM 19.4 °F 6.6 °F 15.8 °F 86% 29.93 in 0.8 mi WSW 12.7 mph 18.4 mph 0.02 in Snow Light Snow
10:51 PM 19.9 °F 9.3 °F 16.0 °F 85% 29.97 in 0.8 mi WSW 9.2 mph 18.4 mph 0.02 in Snow Light Snow
11:04 PM 19.4 °F 7.2 °F 15.8 °F 86% 29.93 in 2.0 mi WSW 11.5 mph 17.3 mph 0.00 in Snow Light Snow
11:07 PM 19.4 °F 5.5 °F 15.8 °F 86% 29.93 in 4.0 mi WSW 15.0 mph 24.2 mph 0.00 in Snow Light Snow
11:20 PM 19.4 °F 5.5 °F 12.2 °F 74% 29.93 in 8.0 mi WSW 15.0 mph 19.6 mph 0.00 in   Overcast
11:51 PM 19.9 °F 6.2 °F 12.9 °F 74% 29.97 in 7.0 mi West 15.0 mph 21.9 mph 0.00 in   Overcast
11:58 PM 19.4 °F 5.5 °F 14.0 °F 80% 29.93 in 1.8 mi West 15.0 mph 27.6 mph 0.00 in Snow Light Snow